Temp
82 87 88 86 75 75 69 72 75 78 82 87 89 83 85 86 84 80 83 87 88 87 85 83 79 79 79 79 79 79 79 79 79 79 79 79 79 79 79 79 79 80 81 81 81 80 80 80 80
85 86 87 82 71 66 70 74 74 80 86 88 88 87 86 83 84 80 83 86 88 86 85 85 79 79 79 79 79 78 79 79 79 79 79 79 79 79 79 79 79 80 80 81 81 80 80 80 80
85 83 81 77 70 67 70 74 78 83 87 84 85 89 86 83 83 85 88 87 88 86 86 84 79 79 79 79 79 78 78 78 79 79 79 79 79 78 78 79 79 80 80 81 81 80 80 80 80
84 85 79 70 67 71 73 77 79 83 87 88 87 84 88 87 86 88 88 88 87 88 87 81 78 78 79 79 78 78 78 78 79 79 78 78 78 78 78 78 79 79 80 81 80 80 79 79 79
82 78 70 66 68 71 76 79 81 82 83 86 85 83 83 85 86 87 86 87 88 87 88 86 78 78 79 79 78 78 78 78 78 78 78 78 78 78 78 78 79 79 80 80 80 79 79 79 78
78 75 65 63 66 72 77 81 82 82 84 86 85 83 85 84 85 86 88 87 89 86 86 86 79 78 78 78 78 78 78 78 78 78 78 78 78 78 78 78 79 79 79 79 79 79 78 77 77
72 70 65 64 66 70 76 82 81 81 82 85 87 83 84 83 85 86 87 87 88 87 86 85 86 82 78 78 78 77 77 77 77 77 77 77 77 77 78 78 78 78 78 78 78 78 78 77 77
75 71 62 65 67 69 77 81 82 81 83 89 88 83 84 84 84 85 86 87 87 87 88 86 85 87 86 85 78 77 77 77 77 77 77 77 77 77 77 77 77 78 78 78 78 78 77 77 77
73 66 62 66 66 72 78 78 84 85 83 86 86 86 86 85 84 84 83 84 86 86 86 87 87 86 86 87 84 78 78 78 77 78 77 78 86 85 84 81 77 78 78 78 77 77 77 77 77
70 63 65 72 74 75 77 77 78 81 82 83 83 83 83 84 84 83 83 84 84 85 85 86 85 85 85 86 85 85 85 86 85 85 83 85 85 84 85 82 77 77 77 77 77 77 77 78 87
70 63 70 71 76 77 77 77 80 78 78 82 82 81 82 83 83 85 86 87 87 87 86 85 83 83 84 87 85 85 86 85 84 83 83 83 84 84 85 85 85 84 80 86 84 84 86 85 85
60 70 68 72 76 76 75 78 77 78 81 85 85 86 84 82 83 86 86 87 86 85 85 85 84 82 82 86 85 85 85 85 84 84 82 82 82 82 82 84 85 83 85 84 83 86 83 82 82
55 66 68 73 75 76 77 75 76 78 84 87 85 85 86 85 85 86 88 89 88 85 86 84 83 81 81 81 84 84 84 84 84 84 83 83 83 81 83 83 84 84 85 84 83 81 82 82 82
68 69 68 72 73 75 72 75 74 80 84 84 83 84 87 85 86 85 83 84 84 85 85 86 83 81 82 81 81 81 83 84 83 83 84 80 81 81 82 82 82 83 84 84 83 83 82 82 82
69 64 67 68 72 72 74 69 70 79 82 81 82 83 83 84 86 86 88 84 84 85 86 84 82 83 80 81 81 82 83 84 83 83 82 81 77 78 79 82 82 83 83 81 82 81 81 81 82
64 64 60 68 68 73 73 64 74 77 77 79 80 83 83 85 85 87 87 84 84 83 81 83 84 83 79 80 81 83 83 83 81 82 81 81 76 78 79 82 78 83 82 82 82 82 81 81 81
59 55 57 64 69 69 68 64 74 77 76 77 79 81 81 84 84 83 84 85 84 82 83 82 81 83 80 79 81 81 81 81 82 80 81 80 81 81 81 83 81 80 81 81 81 81 80 81 81
55 54 57 60 65 68 66 68 73 75 75 76 77 79 77 78 80 85 83 82 82 81 81 81 81 81 79 80 78 79 80 81 83 81 81 80 81 82 81 82 81 80 81 80 80 78 80 80 81
62 59 58 61 67 66 65 66 72 71 74 76 76 73 73 75 80 81 81 81 80 78 78 79 78 78 78 78 77 78 79 80 80 81 80 80 80 81 80 81 80 80 78 79 78 79 77 79 77
60 57 57 61 64 64 65 65 69 72 72 74 74 75 74 77 79 79 79 80 78 78 77 78 79 78 77 80 79 81 81 81 82 82 80 80 79 80 79 78 79 79 79 77 77 75 77 77 79
58 57 57 58 61 64 61 61 64 70 70 72 73 72 72 70 71 72 74 75 79 78 78 77 78 78 77 79 78 76 77 78 78 78 77 79 79 80 79 79 78 78 76 76 75 74 73 74 77
54 62 62 59 57 53 60 52 59 65 68 69 69 69 69 69 70 71 71 72 72 73 77 77 77 75 75 75 77 76 78 76 78 77 73 76 78 79 79 79 79 77 78 74 74 77 74 72 72
60 63 61 59 55 55 55 54 59 60 64 65 65 66 67 68 68 69 70 69 72 71 72 74 73 74 73 74 75 75 73 71 75 75 74 75 75 77 79 78 77 76 79 76 75 75 74 76 73
64 60 57 55 55 48 55 55 56 60 60 63 63 65 66 68 70 71 71 72 72 74 73 73 72 72 74 74 73 73 72 73 75 75 75 76 77 77 77 78 77 77 77 76 77 74 73 73 74
61 57 49 47 47 47 51 52 58 58 59 62 63 65 68 70 71 72 71 72 71 71 72 74 73 71 73 74 74 75 75 74 74 74 76 75 76 76 74 75 75 77 75 75 75 74 73 73 73
58 58 50 39 42 49 50 49 55 60 62 64 65 66 69 70 72 73 73 73 73 72 72 73 73 71 72 73 72 72 72 77 77 76 77 78 78 77 75 75 75 75 75 75 74 75 75 73 71
55 54 56 48 45 47 53 53 57 60 60 63 65 66 67 69 70 72 74 75 74 74 72 73 73 73 73 73 72 72 72 71 73 71 71 75 74 76 74 74 74 74 74 74 73 74 72 72 71
59 59 50 51 38 38 47 48 55 54 57 60 62 63 65 68 71 72 73 73 74 71 70 69 70 69 69 70 70 71 69 70 70 70 69 70 71 71 72 72 72 72 73 73 72 73 72 70 72
55 54 51 52 50 42 42 50 57 59 60 59 61 64 65 67 69 70 70 70 70 70 70 68 68 69 68 68 68 68 68 69 69 68 69 68 68 69 69 70 71 70 70 71 70 70 71 70 70
55 52 53 44 43 45 44 47 59 61 61 60 62 63 66 66 66 66 66 67 68 67 68 67 66 68 68 68 68 67 67 67 66 66 68 67 67 68 68 69 69 69 70 69 68 69 71 70 69
MSLP
1011.61 1011.36 1011.34 1010.90 1010.61 1009.59 1008.48 1007.95 1007.81 1006.75 1005.74 1005.68 1005.43 1005.51 1005.23 1005.32 1005.49 1006.90 1007.90 1008.29 1008.63 1009.07 1009.91 1010.79 1011.35 1011.72 1011.97 1012.28 1012.43 1012.52 1012.78 1013.07 1013.38 1013.76 1013.96 1014.22 1014.60 1014.93 1015.23 1015.46 1015.66 1015.82 1015.94 1016.11 1016.27 1016.41 1016.49 1016.69 1016.86
1011.46 1011.23 1011.00 1010.50 1009.68 1008.66 1008.03 1007.73 1007.24 1006.61 1006.13 1005.86 1005.12 1005.09 1005.14 1005.39 1006.28 1007.34 1007.99 1008.38 1008.65 1009.09 1009.83 1010.43 1011.26 1011.70 1012.06 1012.35 1012.56 1012.76 1013.08 1013.37 1013.64 1013.86 1014.14 1014.51 1014.83 1015.09 1015.37 1015.57 1015.72 1015.86 1016.00 1016.19 1016.33 1016.47 1016.63 1016.84 1017.01
1011.18 1011.41 1010.70 1010.05 1009.18 1007.97 1007.37 1007.38 1007.15 1006.57 1006.07 1005.73 1005.19 1005.14 1005.24 1005.74 1006.64 1007.07 1007.64 1008.37 1008.73 1009.45 1009.98 1010.68 1011.36 1011.65 1011.97 1012.26 1012.63 1012.89 1013.22 1013.54 1013.83 1014.09 1014.35 1014.60 1014.86 1015.09 1015.24 1015.44 1015.63 1015.80 1015.96 1016.10 1016.27 1016.46 1016.67 1016.87 1017.06
1011.06 1011.24 1011.40 1010.22 1008.75 1008.28 1007.63 1007.42 1007.17 1006.40 1005.73 1005.59 1005.39 1005.24 1005.83 1006.51 1006.68 1007.30 1007.94 1008.72 1009.13 1009.59 1010.16 1010.99 1011.49 1011.84 1012.15 1012.43 1012.81 1013.00 1013.28 1013.63 1013.98 1014.26 1014.50 1014.74 1014.93 1015.14 1015.34 1015.50 1015.73 1015.90 1016.03 1016.24 1016.45 1016.61 1016.82 1016.99 1017.20
1011.32 1011.38 1010.66 1009.92 1008.88 1008.30 1007.84 1007.57 1007.07 1006.36 1005.90 1005.45 1005.50 1005.43 1006.06 1006.97 1007.40 1007.75 1008.15 1008.70 1009.23 1009.89 1010.32 1011.01 1011.54 1011.87 1012.17 1012.45 1012.81 1013.08 1013.37 1013.68 1014.03 1014.32 1014.58 1014.79 1014.98 1015.21 1015.50 1015.76 1015.93 1016.06 1016.20 1016.36 1016.52 1016.74 1017.04 1017.27 1017.39
1011.05 1011.59 1010.67 1009.63 1008.99 1008.38 1007.72 1007.40 1007.03 1006.35 1005.90 1005.45 1005.45 1005.69 1006.42 1007.28 1007.48 1007.89 1008.26 1008.75 1009.26 1009.86 1010.37 1010.94 1011.73 1012.00 1012.30 1012.56 1012.86 1013.10 1013.43 1013.74 1014.04 1014.37 1014.66 1014.89 1015.10 1015.33 1015.64 1015.89 1016.09 1016.27 1016.45 1016.56 1016.71 1016.94 1017.09 1017.28 1017.44
1011.30 1011.26 1010.42 1009.84 1009.02 1008.38 1007.61 1007.29 1006.94 1006.40 1005.87 1005.49 1005.51 1005.55 1006.37 1007.13 1007.62 1008.11 1008.61 1009.10 1009.56 1010.02 1010.48 1011.03 1011.53 1012.06 1012.45 1012.67 1012.91 1013.23 1013.53 1013.79 1014.04 1014.33 1014.67 1014.99 1015.24 1015.47 1015.72 1015.98 1016.24 1016.44 1016.63 1016.81 1016.93 1017.03 1017.09 1017.15 1017.29
1011.99 1011.59 1010.67 1009.88 1008.99 1008.28 1007.91 1007.22 1007.08 1006.66 1005.95 1005.82 1005.80 1005.55 1006.04 1006.88 1007.88 1008.41 1008.86 1009.25 1009.64 1010.10 1010.46 1010.93 1011.39 1011.79 1012.30 1012.66 1013.00 1013.18 1013.49 1013.80 1014.11 1014.35 1014.69 1015.04 1015.35 1015.66 1015.87 1016.07 1016.26 1016.45 1016.56 1016.68 1016.93 1017.08 1017.26 1017.29 1017.14
1012.74 1011.63 1010.44 1009.60 1009.17 1008.33 1008.12 1007.41 1007.11 1006.88 1006.44 1006.03 1006.07 1006.20 1006.59 1007.20 1008.09 1008.50 1008.93 1009.33 1009.63 1010.09 1010.45 1010.82 1011.32 1011.72 1012.11 1012.43 1012.95 1013.34 1013.55 1013.83 1014.08 1014.33 1014.66 1015.03 1014.97 1015.28 1015.59 1015.80 1016.13 1016.32 1016.37 1016.47 1016.68 1016.94 1017.05 1017.20 1017.39
1012.60 1011.52 1010.49 1009.69 1009.19 1008.59 1008.26 1007.87 1007.52 1006.92 1006.58 1006.27 1006.40 1006.91 1007.16 1007.53 1007.92 1008.22 1008.57 1008.81 1009.27 1009.71 1010.29 1010.81 1011.28 1011.65 1012.01 1012.30 1012.65 1012.99 1013.28 1013.55 1013.76 1013.90 1014.23 1014.51 1014.78 1015.01 1015.19 1015.50 1015.92 1016.05 1016.26 1016.42 1016.51 1016.68 1016.87 1016.97 1016.60
1012.37 1011.43 1010.90 1009.77 1009.34 1008.91 1008.30 1007.97 1007.71 1007.24 1006.61 1006.82 1006.90 1007.00 1007.41 1007.68 1007.89 1007.95 1008.27 1008.52 1008.95 1009.60 1010.10 1010.74 1011.33 1011.59 1011.82 1011.95 1012.45 1012.69 1012.89 1013.23 1013.61 1013.82 1014.09 1014.32 1014.67 1014.97 1015.18 1015.24 1015.38 1015.51 1015.83 1015.75 1015.98 1016.13 1016.28 1016.37 1016.45
1012.58 1011.66 1011.26 1010.11 1009.50 1009.06 1008.50 1008.17 1007.57 1007.34 1006.76 1006.91 1007.15 1007.26 1007.35 1007.37 1007.50 1007.61 1007.85 1008.22 1008.80 1009.30 1009.77 1010.39 1010.98 1011.40 1011.65 1011.75 1012.10 1012.24 1012.39 1012.72 1013.17 1013.55 1014.05 1014.33 1014.56 1014.80 1014.90 1014.87 1015.00 1015.37 1015.21 1015.39 1015.68 1015.66 1015.94 1016.16 1016.22
1012.99 1011.15 1011.25 1010.46 1009.81 1009.34 1009.00 1008.39 1007.73 1007.16 1006.91 1006.91 1007.03 1007.04 1007.04 1006.97 1007.08 1007.40 1007.66 1008.09 1008.50 1008.85 1009.23 1009.67 1010.34 1010.82 1011.29 1011.79 1011.61 1011.87 1012.13 1012.35 1012.69 1013.20 1013.66 1013.97 1014.03 1014.36 1014.44 1014.49 1014.58 1014.86 1014.99 1015.12 1015.24 1015.48 1015.43 1015.65 1015.72
1010.68 1010.65 1010.50 1010.52 1009.67 1008.90 1008.79 1008.29 1007.99 1006.71 1006.58 1006.50 1006.85 1006.71 1006.79 1006.99 1006.80 1007.31 1007.70 1007.83 1008.14 1008.31 1008.50 1009.05 1009.61 1010.22 1010.70 1011.03 1011.24 1011.58 1011.70 1011.85 1012.38 1012.79 1013.05 1013.60 1013.89 1014.08 1014.03 1014.42 1014.63 1014.82 1014.80 1014.86 1015.00 1014.99 1015.18 1015.08 1015.16
1010.30 1010.12 1009.83 1009.60 1009.34 1008.84 1008.51 1007.85 1007.47 1006.59 1006.32 1006.30 1006.31 1006.51 1006.95 1007.03 1007.24 1007.04 1006.90 1007.24 1007.48 1007.67 1008.01 1008.56 1009.31 1009.74 1010.17 1010.36 1010.64 1011.05 1011.26 1011.57 1011.98 1012.23 1012.77 1013.26 1013.60 1013.73 1013.40 1013.52 1013.82 1014.08 1014.49 1014.74 1014.57 1014.72 1014.75 1014.73 1014.75
1009.73 1009.90 1009.34 1008.71 1009.04 1008.40 1008.20 1006.67 1006.57 1006.45 1006.41 1006.29 1006.37 1006.27 1006.33 1006.40 1006.57 1006.76 1006.81 1007.12 1007.40 1007.63 1007.75 1008.22 1008.50 1008.89 1009.51 1009.99 1010.52 1010.73 1010.86 1011.18 1011.47 1011.79 1012.24 1012.62 1012.71 1012.91 1013.84 1013.17 1013.40 1013.22 1013.70 1013.93 1014.04 1014.22 1014.13 1014.05 1014.17
1009.29 1009.04 1009.17 1008.51 1008.26 1007.92 1007.96 1007.16 1006.40 1006.52 1006.65 1006.45 1006.35 1006.40 1006.31 1006.15 1006.15 1006.28 1006.23 1006.44 1006.51 1006.95 1007.26 1007.58 1007.98 1008.17 1008.80 1009.40 1009.88 1010.30 1010.59 1010.78 1010.97 1011.51 1011.77 1012.06 1012.25 1012.61 1012.93 1012.55 1012.75 1013.19 1013.57 1013.29 1013.70 1013.71 1013.74 1013.51 1013.57
1008.12 1008.63 1008.53 1007.91 1008.03 1007.87 1007.71 1006.89 1006.38 1006.50 1006.56 1006.41 1006.28 1006.37 1006.41 1006.12 1005.73 1005.76 1006.34 1006.47 1006.56 1006.57 1006.78 1007.10 1007.53 1007.96 1008.54 1009.07 1009.71 1010.14 1010.51 1010.64 1010.69 1010.95 1011.18 1011.67 1011.95 1012.11 1012.14 1012.09 1012.38 1012.89 1013.13 1013.15 1013.54 1013.56 1013.57 1013.48 1013.20
1008.14 1008.48 1008.37 1008.06 1007.83 1007.71 1007.40 1006.98 1006.32 1006.68 1006.54 1006.30 1006.42 1006.60 1006.38 1006.07 1005.83 1006.19 1006.37 1006.42 1006.28 1006.35 1006.53 1006.72 1007.09 1007.46 1008.12 1008.54 1009.02 1009.32 1009.43 1010.06 1010.49 1010.64 1010.89 1011.22 1011.47 1011.66 1011.90 1012.05 1012.34 1012.53 1012.90 1012.96 1013.02 1013.01 1013.21 1012.94 1013.24
1008.13 1008.15 1008.15 1007.98 1007.86 1008.21 1007.49 1007.06 1006.74 1006.43 1006.32 1006.36 1006.62 1006.55 1006.65 1006.43 1005.94 1006.18 1006.38 1006.09 1005.82 1006.13 1006.46 1006.78 1006.82 1007.05 1007.46 1007.91 1008.45 1008.70 1009.02 1009.63 1009.98 1010.38 1010.65 1010.95 1011.21 1011.58 1011.79 1011.92 1011.90 1012.05 1012.22 1012.57 1012.65 1012.83 1012.63 1012.79 1012.94
1008.34 1008.18 1007.97 1007.87 1008.25 1008.13 1007.72 1007.26 1006.95 1006.70 1006.78 1006.96 1007.20 1007.63 1007.53 1007.35 1006.86 1006.48 1006.63 1006.44 1006.16 1006.23 1006.37 1006.49 1006.69 1007.08 1007.61 1007.77 1008.33 1008.88 1009.28 1009.65 1009.92 1010.12 1010.50 1010.87 1011.13 1011.27 1011.55 1011.58 1011.89 1011.81 1011.92 1011.94 1012.13 1012.49 1012.51 1012.25 1012.21
1007.96 1007.84 1007.91 1008.09 1008.23 1007.81 1007.90 1007.28 1007.18 1007.08 1006.98 1007.35 1007.75 1007.74 1007.86 1007.86 1007.71 1007.30 1006.82 1006.71 1006.76 1006.72 1006.69 1006.73 1006.95 1007.15 1007.82 1008.35 1008.06 1008.28 1008.56 1009.06 1009.52 1010.14 1010.92 1011.18 1011.08 1011.30 1011.39 1011.55 1011.67 1011.60 1011.64 1011.93 1012.09 1012.04 1012.23 1012.18 1011.83
1007.66 1007.90 1008.17 1008.27 1008.42 1008.49 1008.56 1008.04 1007.45 1007.71 1007.46 1007.84 1008.29 1008.58 1008.76 1008.55 1008.17 1007.80 1007.58 1007.27 1007.10 1007.12 1006.95 1006.96 1007.30 1007.50 1007.76 1007.99 1008.53 1008.34 1008.68 1009.55 1009.96 1010.47 1010.81 1011.27 1011.34 1011.26 1011.42 1011.43 1011.71 1011.62 1011.52 1011.59 1011.78 1011.81 1011.91 1011.75 1011.79
1007.91 1008.17 1008.55 1008.78 1008.58 1008.27 1008.06 1008.04 1007.71 1008.10 1008.47 1008.57 1008.90 1008.93 1009.02 1008.81 1008.47 1008.22 1008.12 1007.88 1007.48 1007.32 1007.26 1007.28 1007.45 1007.93 1008.11 1008.14 1008.50 1008.64 1008.99 1009.44 1009.97 1010.30 1010.66 1010.79 1011.01 1011.14 1011.24 1011.25 1011.33 1011.42 1011.32 1011.36 1011.39 1011.55 1011.65 1011.61 1011.53
1007.62 1007.71 1008.09 1008.37 1008.14 1008.13 1008.59 1008.46 1008.03 1008.85 1009.11 1009.15 1009.24 1009.22 1009.12 1008.92 1008.72 1008.57 1008.33 1008.33 1008.28 1008.15 1008.07 1007.98 1008.10 1008.22 1008.33 1008.56 1008.62 1008.91 1009.17 1009.43 1009.68 1010.06 1010.35 1010.37 1010.55 1010.74 1010.74 1010.94 1011.03 1011.03 1011.10 1011.12 1011.18 1011.21 1011.22 1011.28 1011.20
1007.81 1007.89 1007.99 1008.15 1008.48 1008.55 1009.10 1008.35 1008.63 1009.43 1009.72 1009.85 1009.79 1009.65 1009.36 1009.07 1008.97 1008.79 1008.68 1008.77 1008.75 1008.77 1008.82 1008.86 1009.09 1009.07 1009.16 1009.33 1009.36 1009.62 1009.75 1009.63 1009.58 1009.80 1009.89 1009.86 1009.87 1010.02 1010.28 1010.39 1010.47 1010.57 1010.63 1010.65 1010.76 1010.72 1010.76 1010.93 1010.94
1008.22 1008.43 1009.19 1008.98 1009.97 1009.23 1008.44 1008.78 1009.54 1009.79 1009.74 1009.86 1009.79 1009.55 1009.56 1009.41 1009.27 1009.12 1008.93 1008.88 1008.98 1009.02 1009.19 1009.28 1009.32 1009.32 1009.37 1009.45 1009.45 1009.56 1009.77 1009.83 1009.74 1010.11 1010.27 1010.17 1010.23 1010.07 1010.10 1010.13 1010.09 1010.20 1010.23 1010.24 1010.21 1010.10 1010.23 1010.41 1010.34
1008.19 1009.11 1009.38 1009.48 1009.48 1009.07 1008.58 1008.62 1008.07 1009.23 1009.53 1009.91 1009.75 1009.92 1009.95 1009.74 1009.52 1009.43 1009.28 1009.36 1009.42 1009.64 1009.94 1010.07 1010.05 1009.98 1010.11 1010.05 1010.06 1009.81 1009.96 1009.98 1010.11 1010.28 1010.32 1010.17 1010.02 1010.15 1010.27 1010.27 1010.14 1010.08 1009.83 1009.59 1009.43 1009.48 1009.57 1009.78 1009.66
1009.40 1009.35 1009.94 1010.11 1010.10 1009.45 1008.75 1008.24 1008.63 1008.66 1009.47 1009.85 1010.04 1010.23 1010.26 1009.90 1009.69 1009.74 1009.85 1010.06 1010.25 1010.29 1010.46 1010.58 1010.57 1010.57 1010.56 1010.57 1010.58 1010.50 1010.45 1010.23 1010.35 1010.21 1010.05 1009.90 1010.27 1010.21 1009.92 1009.89 1009.77 1009.72 1009.75 1009.54 1009.11 1008.86 1008.78 1008.84 1008.77
1010.19 1010.17 1010.26 1010.51 1010.86 1010.64 1010.12 1009.07 1009.26 1009.33 1009.73 1010.11 1010.19 1010.29 1010.21 1010.16 1010.14 1010.38 1010.51 1010.59 1010.65 1010.78 1010.88 1010.92 1011.17 1011.02 1010.98 1011.00 1010.86 1010.69 1010.66 1010.48 1010.41 1010.23 1009.70 1009.77 1010.07 1009.50 1009.50 1009.43 1009.21 1009.04 1008.87 1008.70 1008.55 1008.34 1007.95 1007.91 1007.88
Wind_Speed
6 8 1 3 4 2 4 2 3 5 7 4 14 4 3 3 1 3 2 7 15 20 18 16 14 13 12 12 14 14 15 16 16 16 16 16 15 15 13 12 10 10 9 9 9 9 9 10 10
6 3 1 1 5 6 5 2 1 6 11 13 5 6 5 2 3 7 11 10 17 19 16 17 16 15 14 13 13 15 15 15 15 16 16 15 14 14 13 11 10 10 9 9 9 9 9 9 9
2 3 3 4 3 9 4 5 1 8 11 4 1 2 2 2 2 10 2 15 18 17 15 15 17 16 16 15 14 14 15 15 15 15 15 15 14 13 13 12 11 11 10 10 9 9 9 8 8
3 2 3 5 9 5 2 7 3 9 3 4 3 2 3 5 6 4 14 15 17 16 15 16 16 15 16 16 15 14 14 14 14 14 14 13 13 12 11 10 9 9 9 9 8 7 7 6 6
3 1 4 4 7 3 4 2 5 6 7 7 0 0 2 4 5 12 16 15 17 15 13 16 15 16 17 17 17 16 15 15 14 14 14 13 12 11 9 8 8 8 7 7 7 6 4 3 2
2 0 4 10 4 3 3 4 4 4 5 7 5 3 4 3 7 11 13 15 16 16 14 13 14 14 15 16 16 16 16 15 14 13 12 11 10 9 8 7 7 6 5 4 4 3 2 2 3
0 1 5 3 4 3 2 2 2 5 6 3 1 7 1 5 7 10 10 13 14 14 13 12 13 13 14 15 15 15 15 14 14 13 11 10 9 8 7 6 6 5 3 3 3 3 4 4 4
1 1 3 4 5 2 2 1 1 4 4 8 2 5 3 5 10 11 10 12 13 13 13 13 12 13 13 12 14 15 15 14 13 12 11 10 8 7 7 5 6 5 5 5 5 4 4 5 5
1 3 7 7 5 2 1 3 3 4 6 4 4 3 3 15 13 11 11 11 11 11 12 12 12 12 12 12 12 12 14 13 12 11 10 9 7 8 8 5 5 7 8 7 6 5 6 6 8
8 7 10 4 4 6 3 2 5 5 6 2 2 6 10 14 13 12 12 12 13 15 13 12 12 12 11 9 11 11 10 9 10 10 10 8 8 7 7 6 9 9 7 6 7 7 6 6 5
8 13 10 6 9 5 4 4 2 4 0 5 6 1 8 11 11 12 11 11 13 12 11 13 11 11 12 10 8 6 6 7 7 10 9 8 6 5 6 4 5 6 7 6 7 6 5 6 5
11 15 8 9 5 4 7 3 6 5 7 4 8 4 8 11 11 11 12 13 13 14 14 14 14 12 12 8 9 8 8 8 7 8 9 7 5 6 6 5 6 6 5 5 5 4 5 6 6
19 17 12 13 24 14 6 10 8 10 11 12 9 7 7 10 11 11 11 10 11 14 16 17 16 14 12 12 9 9 9 8 8 8 9 8 8 7 7 7 6 6 5 6 5 6 5 5 6
12 16 17 16 15 10 8 10 6 8 9 10 5 7 8 9 11 8 10 13 14 14 16 16 18 17 15 14 13 10 9 9 8 8 9 11 8 8 8 7 6 7 6 6 6 6 5 5 6
8 7 10 13 13 9 5 10 11 15 7 9 9 6 7 10 8 12 13 12 15 15 13 16 15 16 16 16 14 11 9 10 9 8 10 9 9 11 11 8 8 8 7 9 7 7 6 6 6
12 5 10 7 12 8 10 16 7 1 3 7 5 7 8 11 14 13 12 11 11 10 13 13 13 16 17 15 11 9 10 9 8 8 8 11 12 10 9 8 7 7 7 7 7 7 7 7 7
3 8 9 5 13 4 9 4 4 2 4 8 7 6 9 12 11 12 14 13 12 12 11 12 14 16 16 14 12 12 12 10 9 8 8 10 12 12 12 8 7 7 8 7 7 7 7 7 6
12 8 5 9 5 6 6 5 8 3 2 5 6 7 9 11 16 12 6 10 13 13 11 11 10 12 13 10 9 8 8 8 8 8 8 11 10 11 8 7 7 6 6 6 7 7 6 8 7
7 5 8 3 4 1 6 5 7 1 6 5 5 6 9 8 7 8 7 9 11 11 11 14 13 13 11 10 10 9 12 9 8 8 10 11 10 9 9 7 7 6 7 9 8 7 8 8 6
4 3 5 2 3 5 3 6 7 7 4 2 6 8 10 11 10 7 8 4 2 4 8 10 13 13 13 10 8 4 8 6 6 6 7 7 8 8 8 8 7 7 6 8 7 8 7 8 7
4 6 5 6 1 3 1 4 4 2 2 1 4 6 7 11 14 15 13 10 8 7 7 10 11 10 10 11 8 6 6 4 5 5 4 3 4 5 7 6 5 5 5 5 6 7 8 8 7
6 10 10 8 3 5 2 2 3 3 4 1 8 11 12 12 11 11 14 12 10 11 10 8 7 6 6 8 8 10 6 5 3 5 4 4 5 5 4 4 5 4 4 4 5 5 7 6 9
5 5 9 5 7 4 4 4 3 2 5 4 10 11 10 10 10 13 13 13 11 8 5 2 3 6 8 8 6 6 7 4 6 5 7 6 5 5 6 6 6 5 4 4 4 4 5 6 8
10 5 4 3 3 7 5 6 4 4 1 1 6 8 10 11 12 13 13 12 12 10 7 6 9 8 8 9 8 9 11 11 8 7 6 6 5 6 7 7 6 6 4 5 4 4 6 6 7
4 5 4 5 6 4 2 5 3 2 2 5 8 10 12 12 12 12 13 13 13 13 11 9 11 11 8 7 7 7 7 8 8 9 7 8 7 7 9 9 7 6 6 5 5 5 6 7 8
4 4 4 5 4 2 2 5 5 6 8 8 7 6 8 10 10 11 12 10 10 11 11 11 10 10 8 7 6 5 5 1 2 5 5 7 7 7 8 9 8 9 8 8 7 6 6 6 6
5 5 3 5 2 4 4 2 5 8 8 8 8 11 10 10 9 8 7 8 8 8 8 8 7 7 7 6 4 3 2 3 4 5 6 6 7 7 9 10 10 11 11 11 9 7 8 8 8
1 8 4 2 5 7 5 5 5 13 12 6 6 10 11 10 9 8 7 7 6 8 8 10 10 10 9 9 8 6 5 6 6 7 9 9 8 8 9 11 11 11 12 12 11 9 9 9 9
5 4 4 2 2 4 5 4 2 11 10 4 4 9 10 11 9 7 7 7 7 9 10 10 11 10 10 10 9 9 8 6 5 5 7 8 9 10 11 12 13 13 14 14 12 12 12 12 11
1 2 4 4 6 3 3 5 3 8 5 1 6 9 11 8 6 5 6 7 7 8 8 8 8 8 8 7 8 8 8 8 7 7 6 6 9 8 10 11 13 15 16 15 15 15 14 14 14
Wind_Direction
326 329 176 195 213 244 181 223 330 308 334 308 310 235 282 349 318 353 136 153 148 146 149 158 154 154 148 144 134 126 125 127 128 128 124 125 129 131 130 130 133 136 136 137 139 137 134 134 130
340 345 148 163 229 197 186 167 256 329 306 309 283 228 215 51 78 107 136 168 158 148 154 159 157 155 152 146 135 130 128 128 128 128 128 131 132 134 136 138 144 150 149 149 147 147 147 144 138
65 23 259 237 203 213 194 175 50 304 317 291 276 334 19 34 95 151 135 159 156 154 155 156 157 157 155 149 143 133 131 131 131 132 134 136 139 142 147 152 158 162 161 161 161 160 159 158 153
42 137 125 240 213 210 222 140 294 325 10 4 349 249 106 4 126 159 142 152 159 155 158 151 156 158 154 150 147 139 136 134 136 139 139 142 147 151 157 158 162 167 169 168 166 167 173 172 159
61 109 235 241 226 260 230 253 295 308 304 320 148 65 92 74 87 132 143 155 161 157 162 161 159 160 159 155 153 149 147 146 148 148 149 152 155 157 160 159 165 171 172 172 174 176 178 180 190
118 9 233 232 226 240 257 244 262 287 287 298 210 156 139 112 139 148 151 161 163 159 164 163 164 164 163 160 157 154 153 153 153 152 155 157 159 161 162 164 171 178 174 170 168 164 181 218 247
319 212 239 246 251 252 235 106 173 322 298 37 310 177 91 175 136 145 152 156 160 162 164 169 175 173 169 165 161 158 157 157 157 158 160 162 166 165 167 169 177 176 166 174 188 202 215 222 241
14 275 226 218 238 252 227 306 283 338 338 317 267 187 151 127 140 136 148 157 163 169 175 176 180 181 182 175 167 164 163 163 162 164 166 170 171 174 180 179 183 188 189 198 207 215 241 251 245
294 234 234 224 210 229 182 2 350 304 306 323 355 330 11 134 140 139 148 161 173 182 184 186 184 185 185 183 178 168 169 167 166 169 171 172 197 193 191 191 181 204 207 206 204 219 232 254 263
229 233 240 238 231 257 263 19 326 325 346 352 12 59 123 145 156 160 172 177 190 193 193 193 195 193 190 186 179 184 182 188 190 188 187 199 201 202 208 204 207 218 220 216 215 219 229 233 262
242 245 264 247 235 241 268 314 329 328 38 52 17 77 156 165 172 176 186 197 200 200 200 201 199 198 201 196 188 187 189 188 197 199 197 203 205 209 215 219 218 221 204 234 216 217 233 252 263
261 240 266 314 262 241 274 307 297 270 257 312 324 295 187 184 189 194 198 200 197 200 205 202 204 202 205 202 200 193 195 191 197 202 203 206 212 213 222 225 226 229 226 236 239 245 251 252 261
226 232 256 261 270 269 257 258 266 262 267 283 286 246 232 204 204 213 223 223 210 210 205 204 199 201 203 209 205 206 207 197 198 204 202 213 217 219 222 230 229 235 229 235 238 242 244 261 269
206 219 199 251 253 267 249 251 195 266 261 272 235 245 246 235 217 219 218 224 218 219 216 208 205 201 200 205 205 204 205 200 194 209 204 205 222 230 227 237 251 257 247 248 253 258 261 258 263
192 183 217 224 250 244 238 236 203 244 272 265 279 269 219 239 249 233 225 222 221 220 223 214 206 207 209 210 204 203 205 205 203 202 207 207 209 230 216 218 228 238 254 254 250 254 250 257 256
183 212 219 194 203 233 195 258 246 182 220 255 265 284 267 241 228 237 241 233 218 223 218 212 207 204 205 211 209 208 207 207 206 204 201 201 215 208 238 226 233 238 230 243 249 251 253 253 253
169 190 205 210 195 144 201 209 229 351 241 253 247 269 281 271 248 237 240 240 246 226 220 210 207 208 206 201 203 210 211 210 212 207 205 212 224 218 229 224 232 236 241 234 244 239 241 250 253
179 200 211 197 153 172 182 222 277 278 222 254 272 280 287 268 255 253 240 238 242 241 232 225 215 216 201 196 195 202 212 223 216 214 214 214 221 222 225 240 244 234 252 250 249 253 244 263 268
173 189 197 184 156 237 201 254 270 256 244 252 287 323 327 293 288 288 277 236 236 237 218 212 202 205 190 190 193 207 214 212 216 220 217 216 222 225 225 236 238 236 245 249 244 248 253 255 241
163 202 230 256 249 211 228 248 282 283 271 305 336 344 347 339 341 343 330 302 264 248 239 238 226 202 198 195 197 204 198 210 219 212 218 222 228 223 222 227 233 230 240 248 249 239 245 260 236
189 220 232 248 76 220 242 235 229 222 258 145 23 3 7 355 339 337 341 336 334 279 254 230 222 221 213 202 168 129 126 125 174 179 157 150 192 190 204 204 224 213 222 247 250 247 244 256 246
210 216 231 237 202 251 289 266 238 233 256 126 21 10 4 2 358 351 349 355 345 322 313 284 247 199 184 194 183 184 180 178 158 148 126 159 154 152 150 183 201 204 200 227 251 250 254 257 268
220 172 211 226 197 188 169 240 198 270 218 45 14 10 19 20 21 19 7 356 0 1 1 359 149 143 149 157 176 155 143 128 129 136 152 166 164 170 176 185 189 192 211 204 241 252 250 259 267
146 127 93 110 158 232 190 231 183 171 169 58 32 37 32 36 43 42 36 31 30 31 49 98 115 115 128 130 146 146 141 144 153 157 175 182 183 184 197 197 196 197 205 217 237 247 253 263 266
166 168 186 211 214 253 73 232 293 128 62 103 84 63 56 52 48 43 42 41 40 43 51 77 97 100 103 120 128 132 142 154 166 174 191 185 193 200 196 198 198 203 211 218 234 242 261 269 271
185 212 213 221 219 233 157 234 113 110 119 113 93 72 47 35 31 42 52 49 50 50 55 64 65 67 63 54 52 40 27 322 248 213 218 218 219 218 205 204 206 207 211 213 215 233 252 259 259
149 198 51 120 79 248 239 165 136 153 130 116 74 47 25 13 8 3 27 64 65 64 60 53 51 55 50 43 24 5 317 281 276 271 263 264 262 245 225 220 218 218 215 218 212 224 229 239 245
337 129 157 144 217 241 206 251 250 184 169 144 74 28 9 356 348 357 351 343 17 36 38 35 31 37 27 18 10 8 350 323 299 288 280 266 257 260 267 255 247 241 231 222 217 225 229 224 239
149 161 73 79 251 253 266 232 328 188 167 142 25 359 349 338 338 342 356 25 46 56 48 41 35 30 24 15 6 0 357 356 315 280 266 254 269 267 257 258 257 251 248 245 235 232 236 238 242
30 140 179 207 192 230 295 268 352 172 153 322 335 346 349 338 350 30 58 64 60 47 36 37 24 16 10 355 341 336 324 322 305 297 307 291 274 268 260 259 252 249 246 245 247 245 237 235 242